Theta_e
322 314 307 312 301 296 290 293 293 294 294 293 296 296 301 292 298 297 292 298 299 302 307 312 322 324 324 324 325 326 327 329 332 333 334 335 336 337 338 337 338 340 342 343 343 341 340 337 339
319 311 312 305 296 292 292 293 293 294 294 293 292 293 293 292 291 290 290 297 299 303 306 313 319 321 322 322 322 323 323 324 326 328 329 329 330 330 332 333 334 334 337 339 339 338 337 335 335
307 308 306 300 293 292 294 293 292 293 294 293 289 289 289 290 294 290 292 297 299 300 302 311 316 318 320 320 321 321 321 321 322 323 324 324 323 324 326 327 328 330 331 332 333 333 332 333 336
303 309 304 297 294 296 297 294 293 293 292 293 290 289 287 291 292 295 296 296 296 296 299 310 314 316 318 318 318 318 319 319 320 320 319 320 319 320 321 322 323 325 326 327 327 328 330 330 330
307 304 297 293 295 293 292 294 293 292 291 290 291 288 286 289 293 294 295 296 294 294 297 302 312 314 316 315 315 316 316 317 316 316 316 317 317 317 319 319 321 321 322 323 324 323 324 324 324
302 302 294 292 293 293 292 294 293 291 291 290 289 287 286 290 291 291 293 292 294 294 296 297 305 310 311 311 311 312 313 314 313 313 313 312 313 313 314 315 317 318 318 319 319 319 320 320 320
300 298 294 294 295 291 293 292 291 290 289 288 290 287 285 287 290 291 291 291 292 294 294 295 297 300 305 306 306 307 308 308 309 308 308 306 306 307 308 309 311 313 314 315 315 315 315 316 317
301 300 294 294 291 292 290 289 288 289 288 288 287 287 284 287 290 290 290 290 290 291 292 292 294 295 295 294 302 303 303 303 303 303 301 300 299 300 302 303 306 308 310 310 311 311 311 311 314
303 296 293 296 294 295 290 290 287 288 288 285 286 285 287 290 290 288 288 288 289 291 290 291 292 293 293 292 293 295 297 297 296 295 297 292 291 292 292 299 301 303 303 306 307 308 307 306 309
298 294 296 296 292 289 290 289 288 288 286 284 284 286 288 289 288 287 286 285 286 287 289 290 293 293 293 291 290 290 290 289 289 288 289 289 288 290 291 293 296 297 298 300 303 305 303 301 301
296 295 295 292 292 291 291 288 288 288 287 288 286 285 286 286 286 286 286 286 286 287 289 290 291 290 291 290 289 288 289 288 288 288 287 287 287 286 286 286 287 288 291 289 292 292 294 295 295
291 289 291 291 292 292 291 290 289 288 287 287 287 287 286 286 286 285 286 286 286 286 286 287 286 287 286 286 287 287 288 286 286 287 287 286 285 284 284 284 285 286 287 287 289 291 293 291 292
290 287 288 289 289 287 291 288 288 286 284 285 286 286 285 285 285 285 286 286 285 285 285 285 285 284 285 285 284 284 283 284 284 285 286 285 284 283 284 284 284 284 285 286 287 290 291 290 290
286 287 286 286 286 286 288 286 287 284 284 284 285 284 284 284 284 284 285 285 285 285 284 284 284 283 284 282 282 282 282 282 283 283 284 285 283 282 282 282 283 283 284 285 286 288 290 288 288
286 284 283 283 284 284 285 285 285 283 285 283 282 282 283 283 284 284 284 284 284 283 283 283 283 283 282 281 282 281 282 282 281 282 283 283 283 282 281 281 281 282 283 285 287 288 290 289 288
284 283 279 281 283 283 283 281 282 282 283 282 281 281 282 282 283 283 284 284 283 282 282 283 285 281 281 280 280 281 281 281 280 281 282 283 283 282 281 280 280 281 282 283 285 285 287 287 285
281 279 279 281 282 281 281 280 282 281 281 280 279 279 281 281 282 282 284 283 282 281 281 281 281 280 280 280 280 280 280 280 280 280 281 282 283 283 281 281 281 281 281 282 284 284 285 285 284
278 279 279 279 279 278 277 279 279 281 280 281 279 278 278 279 281 282 282 282 281 280 280 281 281 280 280 280 279 279 279 279 280 280 281 282 282 282 281 280 281 281 281 281 282 283 283 282 283
279 277 276 277 278 277 277 277 278 279 279 279 279 278 278 279 281 281 281 280 280 279 279 280 280 280 280 278 277 277 276 278 279 279 281 281 281 281 280 279 279 280 280 279 281 281 281 281 281
279 277 276 277 278 276 274 276 277 276 277 280 281 279 279 279 278 279 279 278 279 279 279 279 280 280 280 279 278 278 277 277 278 279 280 281 281 280 281 279 279 279 279 279 279 280 280 281 280
277 277 275 276 276 273 272 274 274 277 276 278 280 280 279 280 279 277 278 277 277 277 278 279 279 280 280 280 278 278 278 277 278 278 279 280 280 280 280 279 278 278 278 278 278 278 279 279 279
276 277 277 276 275 272 271 269 271 274 276 277 278 278 279 279 279 278 278 277 276 277 278 279 280 279 280 280 278 278 277 276 276 277 278 279 280 279 280 279 279 278 278 278 279 279 278 279 278
276 276 276 275 273 271 268 268 272 273 275 277 277 278 279 279 280 279 280 280 279 278 277 277 278 279 279 279 279 278 277 276 276 277 278 278 279 279 279 279 278 278 278 277 278 278 278 278 278
277 277 277 275 272 264 269 270 271 273 277 276 276 278 279 279 279 280 280 280 278 277 277 276 277 278 279 278 278 278 277 277 277 277 277 277 277 278 278 279 277 278 278 277 277 278 278 278 278
276 275 270 267 263 266 268 268 273 276 276 277 278 278 278 279 279 278 277 278 277 277 276 276 277 277 278 278 278 278 277 277 277 277 277 277 276 276 277 278 278 277 278 278 278 277 277 277 277
274 274 270 264 264 267 270 267 274 276 276 277 278 278 278 278 278 278 278 278 278 278 276 277 277 277 277 277 278 277 277 277 278 277 277 277 277 277 277 277 278 278 278 278 278 277 277 277 277
273 271 274 267 262 264 269 271 277 277 276 276 277 277 277 277 277 278 277 277 277 277 277 277 277 277 277 277 278 277 277 277 277 277 277 277 277 278 277 277 277 277 278 277 277 277 276 276 276
272 275 271 268 263 261 267 266 272 275 276 276 276 277 277 277 277 278 277 277 277 278 278 277 277 278 278 278 277 278 277 277 278 277 277 277 277 278 277 277 278 277 277 277 277 276 277 276 276
269 269 269 271 268 264 263 269 274 279 278 278 278 278 277 277 278 278 277 277 277 277 277 277 277 277 277 278 278 277 278 278 278 278 277 277 278 278 278 278 278 278 278 277 276 276 276 276 276
268 269 270 267 264 264 266 268 276 277 277 278 277 278 277 277 277 277 278 277 277 276 276 277 277 277 278 278 278 278 278 278 277 277 277 278 278 278 278 278 278 278 278 277 277 276 276 276 275
Wind_Speed
7 6 1 4 4 5 2 3 0 2 0 2 2 1 1 4 2 3 2 4 4 4 5 6 11 12 13 14 15 16 14 14 15 15 16 16 17 17 16 17 17 17 15 15 14 14 14 12 12
4 3 4 2 5 2 4 3 4 2 4 6 5 3 5 2 2 4 3 2 4 5 5 5 10 11 12 13 15 15 15 14 13 13 14 15 16 16 16 16 16 15 16 16 14 14 13 12 10
1 2 4 4 3 4 4 4 5 3 7 2 4 4 1 2 2 3 2 5 5 5 5 5 10 11 12 14 14 14 14 14 13 13 14 13 14 14 14 15 15 14 14 13 14 12 11 10 11
3 4 5 4 4 4 3 5 5 6 2 3 4 6 2 3 2 4 5 5 6 5 5 6 10 11 12 14 15 14 15 14 14 15 14 13 14 14 14 13 12 11 12 11 11 11 10 11 12
4 3 3 2 4 2 1 5 7 4 4 2 2 4 3 3 6 7 6 6 6 5 6 6 10 11 13 14 15 15 15 15 15 15 14 14 14 14 15 15 13 12 11 12 12 12 10 10 10
4 3 3 3 4 1 3 6 5 3 3 3 4 5 3 5 5 5 6 7 6 6 6 6 10 13 13 14 15 15 15 15 16 15 15 15 15 15 15 15 15 14 13 11 12 12 11 10 11
6 4 5 4 3 1 5 3 5 4 5 2 6 5 2 4 6 7 7 7 7 7 6 6 6 10 14 14 15 16 16 15 16 16 15 15 15 15 15 15 15 14 13 13 12 12 11 11 11
5 4 4 3 5 5 4 3 2 2 3 3 2 5 5 5 8 8 8 7 7 6 7 6 5 6 6 8 15 15 17 16 16 17 17 16 15 15 15 16 15 15 14 14 13 12 12 11 12
2 4 4 5 7 4 5 4 2 2 6 3 2 1 1 12 10 8 6 5 5 6 6 6 6 6 5 6 9 12 15 16 16 13 17 11 6 7 10 14 16 16 15 14 13 13 13 12 13
3 4 9 3 3 3 5 2 8 4 3 1 2 4 8 10 9 8 7 5 4 5 5 6 5 6 5 7 5 6 8 7 7 8 8 5 7 7 9 12 16 15 17 15 15 15 15 11 6
1 4 4 3 2 2 6 4 3 7 4 5 6 9 7 8 7 8 5 4 4 4 4 6 6 6 6 5 3 3 3 4 5 8 7 6 6 5 5 4 5 6 12 6 8 7 7 9 8
1 1 2 2 1 3 6 7 4 3 2 2 3 12 7 9 8 7 7 6 5 5 4 5 6 6 5 3 4 5 6 4 6 6 8 5 4 4 4 4 5 6 5 7 6 5 7 10 12
2 2 3 2 4 3 5 3 3 5 0 3 10 9 9 8 7 5 7 6 6 5 4 4 5 5 4 7 5 5 4 5 4 6 7 5 4 4 4 5 5 5 5 5 5 6 7 10 11
2 3 2 3 2 3 3 1 2 3 4 8 9 8 8 9 9 6 6 6 5 5 5 4 6 5 6 5 5 4 4 5 5 5 5 6 4 4 5 4 5 5 5 4 4 5 6 8 9
4 2 2 1 1 1 0 4 7 5 6 8 8 7 7 8 8 8 7 7 8 4 5 6 6 5 6 6 5 5 5 5 5 4 6 6 5 5 5 4 5 4 4 5 5 6 7 8 8
4 3 1 1 3 1 2 8 2 5 9 9 8 7 7 6 7 6 6 7 7 7 7 5 5 6 6 6 5 4 4 4 4 4 4 6 6 6 5 4 5 5 4 4 5 4 7 7 7
4 4 4 3 1 2 4 6 2 4 6 8 8 8 7 6 5 5 6 7 8 7 7 6 6 7 6 6 5 5 6 4 4 4 4 5 6 6 5 5 5 5 4 5 4 6 4 5 5
5 4 5 4 1 1 2 9 2 5 7 9 8 8 8 8 9 7 7 7 7 7 6 7 5 7 6 5 5 4 4 4 4 4 4 5 4 6 5 4 6 5 5 5 5 6 6 4 4
4 4 4 2 1 2 6 8 9 6 6 8 9 9 9 10 5 6 7 7 7 6 7 7 8 6 5 2 3 3 3 2 3 4 5 5 5 6 6 4 5 5 6 4 4 3 6 6 4
3 3 4 1 1 1 2 11 11 8 9 11 13 10 10 6 7 8 8 7 8 8 8 7 7 7 5 3 2 3 3 2 2 2 4 5 5 5 6 5 5 5 5 6 5 4 3 3 4
3 5 4 2 1 0 5 9 6 6 4 5 8 7 7 12 11 9 9 9 8 9 9 9 8 8 5 4 4 4 4 2 2 2 2 3 5 5 5 6 5 5 4 5 5 4 5 4 3
5 2 3 4 3 4 2 8 6 6 7 7 9 10 10 11 8 7 10 9 9 10 7 8 8 8 6 7 4 5 3 3 2 2 1 2 4 5 5 5 5 6 4 6 5 5 4 3 2
3 2 4 2 3 3 1 0 10 1 7 10 9 10 10 11 12 13 14 14 10 8 9 7 8 7 6 7 6 5 4 2 2 2 3 2 3 4 4 5 5 5 4 5 6 5 6 4 3
7 5 5 4 3 3 6 7 8 8 11 5 5 10 11 10 10 10 9 8 8 7 7 7 8 7 7 7 7 8 8 6 4 3 3 1 1 2 3 4 5 5 5 5 4 5 6 5 4
2 5 3 4 3 8 1 2 11 5 7 7 13 11 10 10 10 9 10 10 9 11 9 8 8 8 7 8 7 7 7 7 7 5 4 4 2 0 0 2 3 3 3 4 4 5 5 4 3
5 4 8 9 5 4 2 10 11 5 4 5 6 9 8 9 9 9 11 11 11 12 10 9 9 8 8 8 8 7 8 5 5 6 4 4 4 3 4 3 3 3 3 3 3 2 2 3 3
7 6 3 8 2 4 5 9 12 6 5 5 9 9 11 10 9 9 8 9 9 10 12 13 10 8 9 9 7 7 7 7 6 7 5 3 3 3 4 4 3 3 2 2 3 3 3 2 1
3 2 3 3 2 5 6 7 9 6 13 9 10 14 10 8 8 8 8 9 7 8 9 8 9 11 8 8 7 7 7 7 6 6 7 6 5 5 6 5 4 4 3 3 2 2 2 4 3
2 2 2 1 5 7 2 11 11 13 15 22 17 13 11 10 9 8 8 8 8 7 9 10 9 9 8 9 7 7 7 7 7 6 7 7 6 6 6 6 6 6 5 3 2 2 3 1 4
2 6 7 7 7 4 3 13 2 6 6 9 11 12 8 8 9 8 8 8 8 8 8 10 9 10 10 9 8 9 7 7 6 6 7 6 7 6 6 6 6 5 5 5 4 4 4 4 5
Wind_Direction
330 319 28 35 57 66 245 227 128 125 66 343 37 43 119 49 138 200 251 93 75 49 11 346 33 40 40 42 42 40 36 35 33 25 27 27 26 24 26 25 22 15 16 24 31 33 23 10 3
337 350 38 63 94 93 266 174 189 131 130 132 67 359 35 75 74 116 106 92 73 57 17 12 39 44 46 48 47 45 40 38 35 36 34 30 23 18 19 18 16 13 10 13 20 21 18 4 4
197 79 87 97 114 185 202 180 146 70 147 128 99 51 51 127 63 115 103 114 82 62 27 30 50 52 54 54 50 48 44 40 40 40 33 33 30 22 21 16 11 9 7 5 10 11 7 359 11
40 16 41 98 222 236 202 154 132 116 182 73 133 82 85 345 130 123 130 105 75 40 20 46 49 56 58 56 51 49 47 43 43 38 32 31 34 28 25 22 16 13 10 11 12 11 15 14 10
45 63 70 96 269 295 50 160 145 138 135 103 167 147 86 34 82 103 110 95 87 49 27 16 59 53 57 58 51 52 51 48 46 39 35 34 34 32 27 24 15 15 14 13 9 11 16 22 12
58 94 75 191 249 299 96 152 140 121 130 128 77 116 104 133 110 106 88 81 67 52 32 27 35 53 51 57 57 53 49 50 51 45 40 36 31 30 29 26 19 17 10 10 11 11 17 19 22
121 104 194 178 221 240 190 136 144 148 132 116 143 109 95 169 137 110 88 67 53 47 41 27 37 46 33 44 50 59 51 47 48 49 44 38 32 27 29 27 25 16 14 15 14 13 17 23 26
107 99 148 218 189 228 167 99 80 112 145 116 13 175 188 180 128 102 85 76 63 49 44 33 38 60 54 23 42 54 58 49 47 44 46 36 30 31 25 26 21 22 14 14 15 16 17 25 32
136 88 191 211 159 211 170 143 58 129 107 58 27 8 346 125 121 100 91 62 44 49 44 53 41 34 59 54 42 38 57 56 51 40 44 33 15 16 19 19 24 24 17 15 17 21 23 31 44
114 161 205 178 158 170 159 151 152 140 115 86 57 29 112 125 124 122 109 97 74 53 46 43 39 46 48 58 42 47 44 49 44 36 34 32 26 19 30 21 23 21 20 15 22 30 32 27 30
159 215 167 188 151 138 146 127 139 135 195 183 190 162 136 131 130 125 123 119 118 88 55 45 55 47 48 49 42 44 39 41 40 38 35 29 33 2 20 4 5 2 14 3 6 15 26 41 50
246 37 330 156 356 150 157 117 138 190 147 262 194 146 135 144 144 144 134 135 117 88 69 62 66 71 59 60 51 49 46 32 42 30 33 31 22 7 17 15 5 17 2 357 6 12 29 51 54
150 160 52 61 70 60 132 113 161 169 114 79 122 133 142 140 139 128 133 128 125 114 105 79 84 81 70 61 41 35 43 45 38 33 28 26 26 17 3 13 15 15 355 7 16 24 41 53 55
74 84 59 21 43 27 154 151 142 167 140 110 135 151 152 150 153 134 145 150 143 130 117 104 86 86 78 76 71 60 53 42 41 35 28 29 30 23 22 18 18 16 2 359 19 34 47 59 60
124 69 351 180 356 45 215 254 228 142 139 140 153 159 154 164 159 174 171 154 147 145 137 122 114 100 92 86 77 59 49 52 47 36 29 30 32 31 25 20 24 8 353 18 35 43 54 61 55
71 62 176 51 140 6 97 261 175 160 148 164 168 175 180 185 187 180 170 152 149 142 149 153 123 111 97 92 78 69 59 56 49 43 32 33 35 32 38 35 28 359 14 29 50 39 68 65 63
14 233 214 296 165 120 171 264 128 174 177 181 190 196 200 197 199 188 182 166 158 159 153 138 133 128 115 96 87 77 71 61 51 47 38 33 39 35 45 36 26 11 30 40 43 52 59 70 67
191 224 234 240 190 153 211 263 249 198 195 205 200 206 211 210 212 188 179 165 154 161 158 147 139 129 118 107 93 69 65 53 46 45 46 40 38 41 49 45 40 31 43 38 42 72 54 63 55
137 192 215 221 102 203 233 265 250 205 216 226 216 210 213 217 208 180 177 167 160 164 162 162 148 158 140 118 105 79 84 43 42 45 48 48 43 45 46 49 45 40 60 51 41 67 57 33 7
163 178 225 283 184 175 349 270 253 197 222 207 207 208 208 188 180 184 185 177 177 171 181 172 173 168 175 141 136 127 139 91 91 52 50 49 50 45 65 54 48 45 63 50 48 57 101 61 5
201 184 184 240 167 207 333 283 230 214 222 204 212 197 186 193 188 190 187 192 180 186 185 182 181 178 179 148 107 79 75 56 52 34 43 32 61 59 60 58 62 51 49 60 48 48 85 124 26
207 173 142 139 130 233 47 275 275 225 225 212 206 197 197 190 187 182 187 188 193 200 183 183 180 176 179 160 142 148 155 157 199 142 129 64 59 57 59 60 53 60 44 52 46 37 55 95 96
201 105 111 85 97 356 203 88 267 70 239 228 208 202 202 193 187 190 193 197 196 173 187 186 177 176 163 164 165 156 147 137 129 102 118 78 53 60 63 72 63 60 56 54 53 44 46 41 66
152 83 60 64 74 332 211 170 266 194 208 181 190 197 193 190 194 197 191 174 181 174 178 180 176 182 171 171 173 171 165 154 143 152 158 134 39 27 61 72 82 82 74 70 68 60 54 54 64
63 107 24 350 4 227 324 213 244 245 225 210 182 189 191 186 185 186 178 182 180 184 186 179 176 186 178 172 175 181 182 168 171 171 170 165 161 156 169 52 62 44 71 73 80 79 69 49 62
190 168 161 198 200 240 343 235 247 222 244 214 185 167 164 182 189 191 190 187 187 188 182 179 177 180 177 177 183 175 169 168 177 178 177 185 180 177 155 142 99 79 59 53 59 56 74 81 88
187 211 159 104 43 41 216 283 293 193 215 206 176 166 192 193 186 192 183 185 181 179 185 185 179 184 180 185 178 178 173 168 182 188 183 181 173 175 164 155 148 114 91 62 51 33 22 35 10
159 239 109 5 168 257 266 274 242 235 206 193 198 201 200 191 186 190 187 184 184 181 180 177 182 190 188 179 180 177 176 180 179 171 189 186 181 169 167 174 180 165 179 165 112 54 334 343 327
143 231 10 133 146 175 246 259 214 212 188 195 199 197 190 187 190 186 186 183 181 168 170 182 182 178 180 184 182 175 184 181 175 181 191 189 179 179 180 182 185 188 195 190 174 193 242 282 292
145 208 173 138 232 234 182 261 244 243 213 181 185 196 191 183 182 180 178 170 172 180 173 183 185 187 192 181 176 192 179 171 183 195 195 184 193 187 186 185 190 194 202 189 200 228 244 243 251